093  
ASUS44 KEWX 250611  
RWRTX  
SOUTH TEXAS REGIONAL WEATHER ROUNDUP  
NATIONAL WEATHER SERVICE AUSTIN/SAN ANTONIO TX  
100 AM CDT SAT JUN 25 2016  
 
NOTE: "FAIR" INDICATED FEW OR NO CLOUDS BELOW 12,000 FEET WITH NO  
SIGNIFICANT WEATHER AND/OR S TO VISIBILITY
.  
 
* - THESE STATIONS ARE NOT NWS OR FAA STATIONS...AND ARE NOT SUBJECT  
TO NWS AND FAA QUALITY CONTROL.
 
 
TXZ171-172-183>190-250700-  
TEXAS HILL COUNTRY AND EDWARDS PLATEAU  
 
CITY SKY/WX TMP DP RH WIND PRES REMARKS
 
JUNCTION CLEAR 80 67 64 SE13 30.03S  
6HR MIN TEMP: 80; 6HR MAX TEMP: 90;  
 
*LLANO PTCLDY 81 75 83 S7 30.06R  
BURNET PTCLDY 79 70 74 S10G20 30.06R  
6HR MIN TEMP: 79; 6HR MAX TEMP: 89;  
 
*HORSESHOE BAY PTCLDY 78 72 80 S7 30.03S  
6HR MIN TEMP: 78; 6HR MAX TEMP: 89;  
 
*KERRVILLE CLEAR 76 70 81 SE9 30.05S  
6HR MIN TEMP: 76; 6HR MAX TEMP: 89;  
 
*FREDERICKSBRG CLOUDY 75 68 79 CALM 30.06S  
6HR MIN TEMP: 75; 6HR MAX TEMP: 87;  
 
*ROCKSPRINGS PTCLDY 77 66 69 SE12G18 30.08S  
*BOERNE STAGE MOCLDY 75 70 83 SE9 30.06S  
*CASTROVILLE PTCLDY 78 70 76 E5 30.02S  
HONDO CLEAR 79 70 74 SE12 30.03R  
6HR MIN TEMP: 79; 6HR MAX TEMP: 91;  
 
*UVALDE CLEAR 79 69 72 CALM 30.00S  
6HR MIN TEMP: 79; 6HR MAX TEMP: 92;  
 
DEL RIO PTCLDY 84 70 62 SE15G24 29.94R  
6HR MIN TEMP: 84; 6HR MAX TEMP: 94;  
 
LAUGHLIN AFB PTCLDY 84 71 64 SE15G23 29.96R  
6HR MIN TEMP: 84; 6HR MAX TEMP: 94;  
 
CARRIZO SPRGS PTCLDY 81 70 69 SE9 29.96R  
*EAGLE PASS CLEAR 84 70 61 SE12G22 29.96R  

 
 
TXZ173-191>194-202-209-217>225-228-250700-  
CENTRAL AND SOUTH CENTRAL TEXAS  
 
CITY SKY/WX TMP DP RH WIND PRES REMARKS
 
GEORGETOWN CLEAR 81 70 69 S12 30.03S  
6HR MIN TEMP: 81; 6HR MAX TEMP: 88;  
 
AUSTIN/BERGSTM PTCLDY 76 72 87 CALM 30.02S  
6HR MIN TEMP: 76; 6HR MAX TEMP: 87;  
 
AUSTIN/MABRY CLOUDY 80 73 79 S5 30.04S  
6HR MIN TEMP: 80; 6HR MAX TEMP: 87;  
 
*AUSTIN/EXEC N/A 75 75 100 CALM 30.04S  
*LAGO VISTA CLOUDY 79 72 78 S5 30.06S  
6HR MIN TEMP: 79; 6HR MAX TEMP: 87;  
 
SAN MARCOS MOCLDY 75 73 94 CALM 30.04R  
6HR MIN TEMP: 75; 6HR MAX TEMP: 86;  
 
NEW BRAUNFELS PTCLDY 77 73 87 SE3 30.01S  
6HR MIN TEMP: 77; 6HR MAX TEMP: 87;  
 
RANDOLPH AFB PTCLDY 76 76 100 SE8 30.02S  
6HR MIN TEMP: 76; 6HR MAX TEMP: 88;  
 
PT SAN ANTONIO CLEAR 79 73 82 SE9 30.00S  
6HR MIN TEMP: 79; 6HR MAX TEMP: 91; 6HR PCP: TRACE;  
 
SAN ANTONIO MOCLDY 79 73 82 SE10 30.02F  
6HR MIN TEMP: 79; 6HR MAX TEMP: 89;  
 
STINSON FIELD CLEAR 80 73 79 SE6 29.99S  
6HR MIN TEMP: 80; 6HR MAX TEMP: 92;  
 
*PLEASANTON CLEAR 79 71 76 SE3 30.01R  
6HR MIN TEMP: 79; 6HR MAX TEMP: 92;  
 
*LA GRANGE N/A 78 76 91 CALM 30.00S  
6HR MIN TEMP: 78; 6HR MAX TEMP: 90;  
 
*GIDDINGS CLEAR 76 72 85 CALM 30.07S  
6HR MIN TEMP: 76; 6HR MAX TEMP: 88;  
 
*GONZALES PTCLDY 78 78 99 CALM 30.01S  
6HR MIN TEMP: 78; 6HR MAX TEMP: 87;  
 

 
 
TXZ163>164-176>182-195>201-210>213-226-227-235-250700-  
SOUTHEAST TEXAS  
 
CITY SKY/WX TMP DP RH WIND PRES REMARKS
 
COLLEGE STN CLEAR 79 74 84 S7 30.02S  
6HR MIN TEMP: 79; 6HR MAX TEMP: 91;  
 
*BRYAN CLEAR 79 74 84 S9 30.04S  
6HR MIN TEMP: 78; 6HR MAX TEMP: 89;  
 
*CALDWELL CLEAR 77 75 94 S6 30.06S  
*CROCKETT CLEAR 77 75 94 SE3 30.06F  
*BRENHAM PTCLDY 79 74 86 CALM 30.04R  
6HR MIN TEMP: 79; 6HR MAX TEMP: 90;  
 
HUNTSVILLE CLEAR 81 74 79 VRB3 30.03S  
6HR MIN TEMP: 81; 6HR MAX TEMP: 90;  
 
CONROE CLEAR 78 75 90 S6 30.04S  
6HR MIN TEMP: 78; 6HR MAX TEMP: 86;  
 
HOUSTON BUSH PTCLDY 80 75 84 S3 30.03S  
6HR MIN TEMP: 79; 6HR MAX TEMP: 87;  
 
HOUSTON HOBBY PTCLDY 81 76 84 CALM 30.02F  
6HR MIN TEMP: 81; 6HR MAX TEMP: 87;  
 
*HOUSTON SW AP CLEAR 75 74 97 CALM 30.04S  
6HR MIN TEMP: 75; 6HR MAX TEMP: 87;  
 
PEARLAND CLEAR 83 76 79 SE3 30.04S HX 91  
6HR MIN TEMP: 82; 6HR MAX TEMP: 90;  
 
HOUSTON HOOKS CLEAR 81 76 84 SE3 30.03S  
6HR MIN TEMP: 81; 6HR MAX TEMP: 87;  
 
ELLINGTON FLD PTCLDY 82 73 74 SE3 30.05S  
SUGAR LAND CLEAR 78 74 87 SE7 30.02F  
6HR MIN TEMP: 78; 6HR MAX TEMP: 87;  
 
*HOUSTON EXEC N/A 79 75 89 SE6 30.04S  
*CLEVELAND MUN CLEAR 77 76 98 CALM 30.04S  
6HR MIN TEMP: 77; 6HR MAX TEMP: 83;  
 
*WHARTON PTCLDY 77 75 94 SE3 30.02S  
6HR MIN TEMP: 77; 6HR MAX TEMP: 90;  
 
*COLUMBUS FAIR 77 76 96 CALM 30.01S  
6HR MIN TEMP: 77; 6HR MAX TEMP: 87;  
 
*EAGLE LAKE CLEAR 77 76 96 SE3 30.02S  
6HR MIN TEMP: 77; 6HR MAX TEMP: 88;  
 

 
 
TXZ214>216-236>238-250700-  
THE UPPER TEXAS COAST  
 
CITY SKY/WX TMP DP RH WIND PRES REMARKS
 
*ORANGE PTCLDY 80 75 86 S3 30.05F  
6HR MIN TEMP: 78; 6HR MAX TEMP: 87;  
 
PORT ARTHUR CLEAR 77 75 93 S5 30.03S  
6HR MIN TEMP: 77; 6HR MAX TEMP: 87;  
 
GALVESTON LGT RAIN 82 77 84 SE15 30.05S HX 90  
6HR MIN TEMP: 81; 6HR MAX TEMP: 85; 6HR PCP: TRACE;  
 
ANGLETON PTCLDY 82 77 84 S9 30.03S HX 90  
6HR MIN TEMP: 79; 6HR MAX TEMP: 88;  
 
*BAY CITY PTCLDY 80 76 89 SE6 30.02F  
PALACIOS PTCLDY 84 75 74 SE14 30.01S HX 92  
6HR MIN TEMP: 83; 6HR MAX TEMP: 87;  
 

 
 
TXZ229>234-239>247-250700-  
TEXAS COASTAL BEND AND RIO GRANDE PLAINS  
 
CITY SKY/WX TMP DP RH WIND PRES REMARKS
 
VICTORIA PTCLDY 79 76 90 SE8 30.00F  
6HR MIN TEMP: 79; 6HR MAX TEMP: 86;  
 
*BEEVILLE PTCLDY 79 78 98 S6 30.00R  
6HR MIN TEMP: 79; 6HR MAX TEMP: 90;  
 
ROCKPORT CLOUDY 84 75 74 SE15G23 29.98F HX 92  
6HR MIN TEMP: 84; 6HR MAX TEMP: 86;  
 
*PORT ARANSAS PTCLDY 83 78 84 S12G21 29.99S HX 94  
6HR MIN TEMP: 82; 6HR MAX TEMP: 86;  
 
*PORT LAVACA PTCLDY 80 77 92 CALM 30.00F  
*INGLESIDE CLOUDY 84 77 78 S14G21 29.98F HX 94  
CORPUS CHRISTI CLOUDY 82 77 84 SE8 29.98F HX 90  
6HR MIN TEMP: 81; 6HR MAX TEMP: 87;  
 
CORPUS NAS NOT AVBL  
*ROBSTOWN CLOUDY 81 77 87 SE7 29.99S  
6HR MIN TEMP: 81; 6HR MAX TEMP: 89;  
 
ALICE CLOUDY 78 75 90 S6 29.98F  
6HR MIN TEMP: 78; 6HR MAX TEMP: 89;  
 
KINGSVILLE NAS CLOUDY 81 80 97 SE12 29.98S HX 91  
6HR MIN TEMP: 79; 6HR MAX TEMP: 87;  
 
COTULLA PTCLDY 82 70 66 S14 29.97S  
6HR MIN TEMP: 82; 6HR MAX TEMP: 96;  
 
*FAITH RANCH N/A N/A N/A N/A MISG N/A  
LAREDO PTCLDY 82 72 71 SE14G23 29.97S  
6HR MIN TEMP: 82; 6HR MAX TEMP: 99;  
 

 
 
TXZ248>255-250700-  
DEEP SOUTH TEXAS  
 
CITY SKY/WX TMP DP RH WIND PRES REMARKS
 
BROWNSVILLE MOCLDY 83 76 79 SE12 29.99S HX 91  
6HR MIN TEMP: 82; 6HR MAX TEMP: 86; 6HR PCP: TRACE;  
 
PORT ISABEL MOCLDY 82 77 84 SE15 29.98S HX 90  
6HR MIN TC1F1C2F2C3F3C4F4C5F5C6F6C7M1C8M2C9!  
 
CLICK HERE TO GO TO PREVIOUS BULLETINS.

The Nexlab TX Page Main Text Page